| time (UTC) | temp C | wind direction | speed KPH | gust KPH | rain 1hr cm | rain 24hr cm | rain mn cm | humidity % | barometer mb |
| 20260831030017 | 26 | 0 | 0.0 | 0.0 | 0.00 | 0.00 | 0.00 | 80 | 1019.6 |
| 20260831025518 | 26 | 0 | 0.0 | 0.0 | 0.00 | 0.00 | 0.00 | 79 | 1019.5 |
| 20260831025018 | 26 | 0 | 0.0 | 0.0 | 0.00 | 0.00 | 0.00 | 79 | 1019.5 |
| 20260831024518 | 26 | 0 | 0.0 | 0.0 | 0.00 | 0.00 | 0.00 | 79 | 1019.4 |
| 20260831024018 | 26 | 0 | 0.0 | 0.0 | 0.00 | 0.00 | 0.00 | 78 | 1019.5 |
| 20260831023518 | 26 | 0 | 0.0 | 0.0 | 0.00 | 0.00 | 0.00 | 78 | 1019.6 |
| 20260831023018 | 26 | 0 | 0.0 | 0.0 | 0.00 | 0.00 | 0.00 | 78 | 1019.5 |
| 20260831022517 | 27 | 0 | 0.0 | 0.0 | 0.00 | 0.00 | 0.00 | 77 | 1019.5 |
| 20260831022018 | 27 | 0 | 0.0 | 0.0 | 0.00 | 0.00 | 0.00 | 77 | 1013.7 |
| 20260831021518 | 27 | 0 | 0.0 | 0.0 | 0.00 | 0.00 | 0.00 | 1009.6 | |
| 20260831021018 | 27 | 0 | 0.0 | 0.0 | 0.00 | 0.00 | 0.00 | 76 | 1018.8 |
| 20260831020518 | 27 | 0 | 0.0 | 0.0 | 0.00 | 0.00 | 0.00 | 76 | 1018.6 |
| 20260831020018 | 27 | 0 | 0.0 | 0.0 | 0.00 | 0.00 | 0.00 | 75 | 1018.5 |
| 20260831015518 | 27 | 0 | 0.0 | 0.0 | 0.00 | 0.00 | 0.00 | 75 | 1018.4 |
| 20260831015018 | 27 | 0 | 0.0 | 0.0 | 0.00 | 0.00 | 0.00 | 75 | 1018.6 |
| 20260831014518 | 27 | 0 | 0.0 | 0.0 | 0.00 | 0.00 | 0.00 | 74 | 1019.2 |
| 20260831014018 | 27 | 0 | 0.0 | 0.0 | 0.00 | 0.00 | 0.00 | 74 | 1019.1 |
| 20260831013518 | 27 | 0 | 0.0 | 0.0 | 0.00 | 0.00 | 0.00 | 74 | 1019.2 |
| 20260831013018 | 27 | 0 | 0.0 | 0.0 | 0.00 | 0.00 | 0.00 | 73 | 1019.1 |
| 20260831012518 | 27 | 0 | 0.0 | 0.0 | 0.00 | 0.00 | 0.00 | 73 | 1019.1 |
| 20260831012018 | 27 | 0 | 0.0 | 0.0 | 0.00 | 0.00 | 0.00 | 73 | 1019.0 |
| 20260831011518 | 27 | 0 | 0.0 | 0.0 | 0.00 | 0.00 | 0.00 | 72 | 1019.0 |
| 20260831011018 | 28 | 0 | 0.0 | 0.0 | 0.00 | 0.00 | 0.00 | 72 | 1019.0 |
| 20260831010518 | 28 | 0 | 0.0 | 0.0 | 0.00 | 0.00 | 0.00 | 71 | 1018.9 |
| 20260831010018 | 28 | 0 | 0.0 | 0.0 | 0.00 | 0.00 | 0.00 | 70 | 1018.8 |
| 20260831005517 | 28 | 0 | 0.0 | 0.0 | 0.00 | 0.00 | 0.00 | 69 | 1018.8 |
| 20260831005018 | 28 | 0 | 0.0 | 0.0 | 0.00 | 0.00 | 0.00 | 69 | 1018.8 |
| 20260831004518 | 28 | 0 | 0.0 | 0.0 | 0.00 | 0.00 | 0.00 | 69 | 1018.8 |
| 20260831004018 | 28 | 0 | 0.0 | 0.0 | 0.00 | 0.00 | 0.00 | 68 | 1018.8 |
| 20260831003517 | 28 | 0 | 0.0 | 0.0 | 0.00 | 0.00 | 0.00 | 67 | 1018.7 |
| 20260831003018 | 28 | 0 | 0.0 | 0.0 | 0.00 | 0.00 | 0.00 | 66 | 1018.7 |
| 20260831002517 | 29 | 0 | 0.0 | 0.0 | 0.00 | 0.00 | 0.00 | 66 | 1018.7 |
| 20260831002017 | 29 | 0 | 0.0 | 0.0 | 0.00 | 0.00 | 0.00 | 65 | 1018.7 |
| 20260831001517 | 30 | 0 | 0.0 | 0.0 | 0.00 | 0.00 | 0.00 | 64 | 1018.7 |
| 20260831001017 | 30 | 0 | 0.0 | 0.0 | 0.00 | 0.00 | 0.00 | 63 | 1018.7 |
| 20260831000516 | 30 | 0 | 0.0 | 0.0 | 0.00 | 0.00 | 0.00 | 62 | 1018.7 |
| 20260831000017 | 30 | 102 | 0.0 | 4.8 | 0.00 | 0.00 | 0.00 | 60 | 1018.7 |
| 20260830235517 | 31 | 76 | 4.8 | 1.6 | 0.00 | 0.00 | 0.00 | 59 | 1018.7 |
| 20260830235017 | 31 | 92 | 0.0 | 9.7 | 0.00 | 0.00 | 0.00 | 57 | 1018.7 |
| 20260830234517 | 31 | 56 | 0.0 | 4.8 | 0.00 | 0.00 | 0.00 | 57 | 1018.7 |
| 20260830234017 | 31 | 61 | 0.0 | 4.8 | 0.00 | 0.00 | 0.00 | 56 | 1018.7 |
| 20260830233517 | 31 | 83 | 0.0 | 4.8 | 0.00 | 0.00 | 0.00 | 55 | 1018.7 |
| 20260830233018 | 31 | 73 | 0.0 | 6.4 | 0.00 | 0.00 | 0.00 | 55 | 1018.6 |
| 20260830232517 | 31 | 0 | 0.0 | 0.0 | 0.00 | 0.00 | 0.00 | 54 | 1018.6 |
| 20260830232017 | 31 | 103 | 0.0 | 4.8 | 0.00 | 0.00 | 0.00 | 54 | 1018.7 |
| 20260830231517 | 32 | 86 | 0.0 | 12.9 | 0.00 | 0.00 | 0.00 | 53 | 1018.6 |
| 20260830231017 | 32 | 86 | 8.0 | 11.3 | 0.00 | 0.00 | 0.00 | 53 | 1018.6 |
| 20260830230517 | 32 | 75 | 1.6 | 9.7 | 0.00 | 0.00 | 0.00 | 52 | 1018.6 |
| 20260830230017 | 32 | 85 | 3.2 | 14.5 | 0.00 | 0.00 | 0.00 | 52 | 1018.6 |
| 20260830225516 | 32 | 0 | 0.0 | 0.0 | 0.00 | 0.00 | 0.00 | 53 | 1018.6 |
| 20260830225017 | 32 | 28 | 0.0 | 3.2 | 0.00 | 0.00 | 0.00 | 51 | 1018.5 |
| 20260830224517 | 32 | 0 | 1.6 | 4.8 | 0.00 | 0.00 | 0.00 | 51 | 1018.4 |
| 20260830224018 | 32 | 104 | 0.0 | 6.4 | 0.00 | 0.00 | 0.00 | 51 | 1018.3 |
| 20260830223517 | 32 | 62 | 0.0 | 6.4 | 0.00 | 0.00 | 0.00 | 50 | 1018.3 |
| 20260830223017 | 32 | 61 | 0.0 | 11.3 | 0.00 | 0.00 | 0.00 | 49 | 1018.3 |
| 20260830222517 | 32 | 99 | 4.8 | 11.3 | 0.00 | 0.00 | 0.00 | 47 | 1018.3 |
| 20260830222017 | 32 | 85 | 0.0 | 6.4 | 0.00 | 0.00 | 0.00 | 48 | 1018.4 |
| 20260830221517 | 32 | 92 | 6.4 | 11.3 | 0.00 | 0.00 | 0.00 | 47 | 1018.4 |
| 20260830221017 | 32 | 76 | 0.0 | 8.0 | 0.00 | 0.00 | 0.00 | 46 | 1018.3 |
| 20260830220517 | 33 | 65 | 0.0 | 12.9 | 0.00 | 0.00 | 0.00 | 46 | 1018.3 |
| 20260830220017 | 33 | 102 | 0.0 | 12.9 | 0.00 | 0.00 | 0.00 | 47 | 1018.4 |
| 20260830215517 | 33 | 79 | 3.2 | 8.0 | 0.00 | 0.00 | 0.00 | 47 | 1018.3 |
| 20260830215017 | 33 | 79 | 1.6 | 8.0 | 0.00 | 0.00 | 0.00 | 47 | 1018.3 |
| 20260830214517 | 33 | 73 | 0.0 | 4.8 | 0.00 | 0.00 | 0.00 | 46 | 1018.3 |
| 20260830214017 | 33 | 47 | 0.0 | 9.7 | 0.00 | 0.00 | 0.00 | 45 | 1018.4 |
| 20260830213517 | 34 | 0 | 1.6 | 0.0 | 0.00 | 0.00 | 0.00 | 44 | 1018.5 |
| 20260830213017 | 34 | 58 | 0.0 | 11.3 | 0.00 | 0.00 | 0.00 | 44 | 1018.6 |
| 20260830212518 | 34 | 55 | 6.4 | 6.4 | 0.00 | 0.00 | 0.00 | 45 | 1018.6 |
| 20260830212017 | 33 | 292 | 3.2 | 4.8 | 0.00 | 0.00 | 0.00 | 44 | 1018.6 |
| 20260830211517 | 34 | 58 | 0.0 | 8.0 | 0.00 | 0.00 | 0.00 | 44 | 1018.7 |
| 20260830211017 | 33 | 71 | 1.6 | 8.0 | 0.00 | 0.00 | 0.00 | 46 | 1018.6 |
| 20260830210517 | 34 | 354 | 0.0 | 4.8 | 0.00 | 0.00 | 0.00 | 45 | 1018.7 |
| 20260830210018 | 34 | 104 | 4.8 | 9.7 | 0.00 | 0.00 | 0.00 | 44 | 1018.7 |
| 20260830205517 | 34 | 85 | 3.2 | 9.7 | 0.00 | 0.00 | 0.00 | 45 | 1018.8 |
| 20260830205017 | 34 | 58 | 0.0 | 6.4 | 0.00 | 0.00 | 0.00 | 45 | 1018.8 |
| 20260830204517 | 34 | 68 | 0.0 | 4.8 | 0.00 | 0.00 | 0.00 | 44 | 1018.8 |
| 20260830204017 | 34 | 73 | 0.0 | 8.0 | 0.00 | 0.00 | 0.00 | 44 | 1019.0 |
| 20260830203517 | 34 | 85 | 0.0 | 6.4 | 0.00 | 0.00 | 0.00 | 46 | 1019.1 |
| 20260830203018 | 34 | 83 | 4.8 | 11.3 | 0.00 | 0.00 | 0.00 | 45 | 1019.0 |
| 20260830202517 | 33 | 85 | 3.2 | 14.5 | 0.00 | 0.00 | 0.00 | 47 | 1019.1 |
| 20260830202017 | 33 | 0 | 0.0 | 0.0 | 0.00 | 0.00 | 0.00 | 48 | 1019.2 |
| 20260830201517 | 33 | 318 | 0.0 | 3.2 | 0.00 | 0.00 | 0.00 | 47 | 1019.2 |
| 20260830201017 | 33 | 80 | 0.0 | 8.0 | 0.00 | 0.00 | 0.00 | 48 | 1019.3 |
| 20260830200517 | 32 | 117 | 0.0 | 11.3 | 0.00 | 0.00 | 0.00 | 48 | 1019.3 |
| 20260830200017 | 32 | 360 | 1.6 | 8.0 | 0.00 | 0.00 | 0.00 | 49 | 1019.3 |
| 20260830195517 | 32 | 162 | 1.6 | 8.0 | 0.00 | 0.00 | 0.00 | 52 | 1019.5 |
| 20260830195018 | 32 | 154 | 0.0 | 9.7 | 0.00 | 0.00 | 0.00 | 51 | 1019.5 |
| 20260830194517 | 32 | 145 | 1.6 | 9.7 | 0.00 | 0.00 | 0.00 | 51 | 1019.6 |
| 20260830194017 | 32 | 69 | 4.8 | 12.9 | 0.00 | 0.00 | 0.00 | 52 | 1019.6 |
| 20260830193517 | 32 | 82 | 1.6 | 4.8 | 0.00 | 0.00 | 0.00 | 53 | 1019.7 |
| 20260830193017 | 32 | 83 | 1.6 | 8.0 | 0.00 | 0.00 | 0.00 | 52 | 1019.7 |
| 20260830192517 | 32 | 114 | 3.2 | 11.3 | 0.00 | 0.00 | 0.00 | 54 | 1019.7 |
| 20260830192018 | 32 | 55 | 4.8 | 6.4 | 0.00 | 0.00 | 0.00 | 56 | 1019.7 |
| 20260830191517 | 31 | 61 | 3.2 | 6.4 | 0.00 | 0.00 | 0.00 | 54 | 1019.8 |
| 20260830191017 | 31 | 69 | 1.6 | 11.3 | 0.00 | 0.00 | 0.00 | 53 | 1019.8 |
| 20260830190517 | 32 | 61 | 0.0 | 4.8 | 0.00 | 0.00 | 0.00 | 55 | 1019.8 |
| 20260830190017 | 31 | 79 | 0.0 | 8.0 | 0.00 | 0.00 | 0.00 | 56 | 1019.8 |
| 20260830185517 | 31 | 65 | 6.4 | 14.5 | 0.00 | 0.00 | 0.00 | 55 | 1019.9 |
| 20260830185017 | 31 | 24 | 3.2 | 8.0 | 0.00 | 0.00 | 0.00 | 56 | 1020.0 |
| 20260830184518 | 31 | 357 | 3.2 | 4.8 | 0.00 | 0.00 | 0.00 | 56 | 1020.1 |
| 20260830184017 | 31 | 89 | 1.6 | 3.2 | 0.00 | 0.00 | 0.00 | 57 | 1020.1 |
| 20260830183518 | 31 | 99 | 1.6 | 8.0 | 0.00 | 0.00 | 0.00 | 57 | 1020.2 |
| 20260830183017 | 31 | 165 | 3.2 | 8.0 | 0.00 | 0.00 | 0.00 | 56 | 1020.3 |
| 20260830182517 | 31 | 88 | 3.2 | 8.0 | 0.00 | 0.00 | 0.00 | 57 | 1020.4 |
| 20260830182017 | 31 | 72 | 0.0 | 9.7 | 0.00 | 0.00 | 0.00 | 57 | 1020.5 |
| 20260830181517 | 31 | 38 | 3.2 | 8.0 | 0.00 | 0.00 | 0.00 | 56 | 1020.7 |
| 20260830181017 | 31 | 92 | 3.2 | 9.7 | 0.00 | 0.00 | 0.00 | 55 | 1020.7 |
| 20260830180517 | 31 | 62 | 4.8 | 6.4 | 0.00 | 0.00 | 0.00 | 57 | 1020.7 |
| 20260830180017 | 31 | 82 | 1.6 | 11.3 | 0.00 | 0.00 | 0.00 | 56 | 1020.8 |
| 20260830175516 | 31 | 56 | 0.0 | 8.0 | 0.00 | 0.00 | 0.00 | 58 | 1020.8 |
| 20260830175017 | 31 | 92 | 6.4 | 12.9 | 0.00 | 0.00 | 0.00 | 59 | 1021.0 |
| 20260830174517 | 31 | 71 | 0.0 | 9.7 | 0.00 | 0.00 | 0.00 | 57 | 1021.0 |
| 20260830174017 | 31 | 59 | 9.7 | 9.7 | 0.00 | 0.00 | 0.00 | 58 | 1021.0 |
| 20260830173517 | 31 | 82 | 8.0 | 9.7 | 0.00 | 0.00 | 0.00 | 59 | 1021.1 |
| 20260830173017 | 31 | 48 | 0.0 | 6.4 | 0.00 | 0.00 | 0.00 | 59 | 1021.2 |
| 20260830172517 | 31 | 79 | 3.2 | 9.7 | 0.00 | 0.00 | 0.00 | 60 | 1021.3 |
| 20260830172017 | 30 | 62 | 1.6 | 9.7 | 0.00 | 0.00 | 0.00 | 61 | 1021.4 |
| 20260830171517 | 30 | 62 | 0.0 | 6.4 | 0.00 | 0.00 | 0.00 | 61 | 1021.4 |
| 20260830171017 | 30 | 92 | 1.6 | 9.7 | 0.00 | 0.00 | 0.00 | 59 | 1021.4 |
| 20260830170517 | 31 | 76 | 4.8 | 14.5 | 0.00 | 0.00 | 0.00 | 60 | 1021.5 |
| 20260830170017 | 30 | 179 | 3.2 | 6.4 | 0.00 | 0.00 | 0.00 | 62 | 1021.5 |
| 20260830165517 | 30 | 83 | 3.2 | 8.0 | 0.00 | 0.00 | 0.00 | 61 | 1021.6 |
| 20260830165017 | 30 | 73 | 1.6 | 11.3 | 0.00 | 0.00 | 0.00 | 62 | 1021.6 |
| 20260830164517 | 30 | 21 | 3.2 | 6.4 | 0.00 | 0.00 | 0.00 | 62 | 1021.6 |
| 20260830164017 | 30 | 66 | 3.2 | 11.3 | 0.00 | 0.00 | 0.00 | 63 | 1021.7 |
| 20260830163518 | 30 | 168 | 0.0 | 9.7 | 0.00 | 0.00 | 0.00 | 64 | 1021.7 |
| 20260830163017 | 29 | 271 | 0.0 | 6.4 | 0.00 | 0.00 | 0.00 | 65 | 1021.8 |
| 20260830162517 | 29 | 275 | 1.6 | 6.4 | 0.00 | 0.00 | 0.00 | 66 | 1021.9 |
| 20260830162017 | 29 | 75 | 0.0 | 8.0 | 0.00 | 0.00 | 0.00 | 65 | 1021.9 |
| 20260830161517 | 29 | 120 | 0.0 | 14.5 | 0.00 | 0.00 | 0.00 | 65 | 1022.0 |
| 20260830161017 | 29 | 144 | 11.3 | 9.7 | 0.00 | 0.00 | 0.00 | 66 | 1022.1 |
| 20260830160517 | 29 | 301 | 8.0 | 11.3 | 0.00 | 0.00 | 0.00 | 67 | 1022.1 |
| 20260830160017 | 29 | 102 | 3.2 | 11.3 | 0.00 | 0.00 | 0.00 | 68 | 1022.0 |
| 20260830155517 | 29 | 49 | 4.8 | 14.5 | 0.00 | 0.00 | 0.00 | 69 | 1022.0 |
| 20260830155022 | 28 | 0 | 3.2 | 0.0 | 0.00 | 0.00 | 0.00 | 70 | 1022.0 |
| 20260830154517 | 28 | 8 | 0.0 | 6.4 | 0.00 | 0.00 | 0.00 | 69 | 1022.1 |
| 20260830154017 | 28 | 75 | 3.2 | 9.7 | 0.00 | 0.00 | 0.00 | 69 | 1022.0 |
| 20260830153517 | 28 | 72 | 6.4 | 6.4 | 0.00 | 0.00 | 0.00 | 70 | 1022.2 |
| 20260830153017 | 28 | 58 | 4.8 | 9.7 | 0.00 | 0.00 | 0.00 | 71 | 1022.1 |
| 20260830152518 | 28 | 34 | 6.4 | 6.4 | 0.00 | 0.00 | 0.00 | 71 | 1022.1 |
| 20260830152018 | 28 | 62 | 4.8 | 12.9 | 0.00 | 0.00 | 0.00 | 70 | 1022.1 |
| 20260830151517 | 28 | 88 | 4.8 | 9.7 | 0.00 | 0.00 | 0.00 | 71 | 1022.1 |
| 20260830151017 | 28 | 79 | 8.0 | 16.1 | 0.00 | 0.00 | 0.00 | 72 | 1022.1 |
| 20260830150517 | 28 | 69 | 6.4 | 11.3 | 0.00 | 0.00 | 0.00 | 73 | 1022.1 |
| 20260830150017 | 28 | 64 | 3.2 | 8.0 | 0.00 | 0.00 | 0.00 | 74 | 1022.1 |
| 20260830145517 | 28 | 73 | 0.0 | 11.3 | 0.00 | 0.00 | 0.00 | 73 | 1022.2 |
| 20260830145017 | 27 | 95 | 3.2 | 12.9 | 0.00 | 0.00 | 0.00 | 75 | 1022.1 |
| 20260830144518 | 27 | 31 | 6.4 | 14.5 | 0.00 | 0.00 | 0.00 | 76 | 1022.1 |
| 20260830144017 | 27 | 349 | 1.6 | 9.7 | 0.00 | 0.00 | 0.00 | 76 | 1022.2 |
| 20260830143517 | 27 | 83 | 4.8 | 11.3 | 0.00 | 0.00 | 0.00 | 76 | 1022.1 |
| 20260830143018 | 27 | 66 | 8.0 | 8.0 | 0.00 | 0.00 | 0.00 | 77 | 1022.1 |
| 20260830142517 | 27 | 89 | 3.2 | 11.3 | 0.00 | 0.00 | 0.00 | 79 | 1022.0 |
| 20260830142017 | 27 | 82 | 8.0 | 16.1 | 0.00 | 0.00 | 0.00 | 79 | 1022.2 |
| 20260830141518 | 27 | 86 | 3.2 | 9.7 | 0.00 | 0.00 | 0.00 | 81 | 1022.0 |
| 20260830141017 | 26 | 296 | 3.2 | 4.8 | 0.00 | 0.00 | 0.00 | 82 | 1021.9 |
| 20260830140517 | 26 | 37 | 1.6 | 8.0 | 0.00 | 0.00 | 0.00 | 83 | 1021.9 |
| 20260830140018 | 26 | 69 | 3.2 | 9.7 | 0.00 | 0.00 | 0.00 | 83 | 1022.2 |
| 20260830135517 | 26 | 88 | 3.2 | 8.0 | 0.00 | 0.00 | 0.00 | 84 | 1022.3 |
| 20260830135017 | 26 | 96 | 3.2 | 9.7 | 0.00 | 0.00 | 0.00 | 85 | 1022.2 |
| 20260830134517 | 26 | 58 | 1.6 | 4.8 | 0.00 | 0.00 | 0.00 | 85 | 1022.2 |
| 20260830134017 | 26 | 147 | 0.0 | 8.0 | 0.00 | 0.00 | 0.00 | 86 | 1022.2 |
| 20260830133517 | 25 | 96 | 4.8 | 8.0 | 0.00 | 0.00 | 0.00 | 86 | 1022.2 |
| 20260830133018 | 25 | 64 | 4.8 | 4.8 | 0.00 | 0.00 | 0.00 | 87 | 1022.3 |
| 20260830132517 | 25 | 75 | 1.6 | 6.4 | 0.00 | 0.00 | 0.00 | 88 | 1022.3 |
| 20260830132017 | 25 | 79 | 1.6 | 8.0 | 0.00 | 0.00 | 0.00 | 89 | 1022.3 |
| 20260830131517 | 25 | 54 | 1.6 | 8.0 | 0.00 | 0.00 | 0.00 | 90 | 1022.2 |
| 20260830131017 | 25 | 93 | 1.6 | 6.4 | 0.00 | 0.00 | 0.00 | 90 | 1022.1 |
| 20260830130517 | 25 | 97 | 1.6 | 4.8 | 0.00 | 0.00 | 0.00 | 91 | 1022.0 |
| 20260830130017 | 25 | 117 | 4.8 | 6.4 | 0.00 | 0.00 | 0.00 | 91 | 1021.9 |
| 20260830125517 | 24 | 95 | 0.0 | 6.4 | 0.00 | 0.00 | 0.00 | 91 | 1021.8 |
| 20260830125018 | 24 | 92 | 3.2 | 6.4 | 0.00 | 0.00 | 0.00 | 92 | 1021.8 |
| 20260830124517 | 24 | 30 | 0.0 | 3.2 | 0.00 | 0.00 | 0.00 | 92 | 1021.8 |
| 20260830124017 | 24 | 64 | 1.6 | 4.8 | 0.00 | 0.00 | 0.00 | 92 | 1021.8 |
| 20260830123517 | 24 | 96 | 1.6 | 6.4 | 0.00 | 0.00 | 0.00 | 93 | 1021.8 |
| 20260830123017 | 23 | 95 | 0.0 | 6.4 | 0.00 | 0.00 | 0.00 | 93 | 1021.8 |
| 20260830122517 | 23 | 112 | 1.6 | 8.0 | 0.00 | 0.00 | 0.00 | 93 | 1021.6 |
| 20260830122017 | 23 | 86 | 1.6 | 3.2 | 0.00 | 0.00 | 0.00 | 93 | 1021.6 |
| 20260830121518 | 23 | 102 | 0.0 | 4.8 | 0.00 | 0.00 | 0.00 | 93 | 1021.5 |
| 20260830121017 | 23 | 89 | 3.2 | 4.8 | 0.00 | 0.00 | 0.00 | 93 | 1021.6 |
| 20260830120517 | 23 | 100 | 3.2 | 3.2 | 0.00 | 0.00 | 0.00 | 93 | 1021.6 |
| 20260830120018 | 23 | 4 | 0.0 | 3.2 | 0.00 | 0.00 | 0.00 | 93 | 1021.7 |
| 20260830115517 | 23 | 4 | 0.0 | 3.2 | 0.00 | 0.00 | 0.00 | 93 | 1021.7 |
| 20260830115017 | 23 | 4 | 1.6 | 1.6 | 0.00 | 0.00 | 0.00 | 93 | 1021.6 |
| 20260830114517 | 23 | 0 | 0.0 | 0.0 | 0.00 | 0.00 | 0.00 | 93 | 1021.5 |
| 20260830114017 | 23 | 0 | 0.0 | 0.0 | 0.00 | 0.00 | 0.00 | 93 | 1021.5 |
| 20260830113517 | 23 | 82 | 0.0 | 3.2 | 0.00 | 0.00 | 0.00 | 93 | 1021.5 |
| 20260830113017 | 23 | 102 | 0.0 | 6.4 | 0.00 | 0.00 | 0.00 | 93 | 1021.4 |
| 20260830112517 | 23 | 0 | 3.2 | 0.0 | 0.00 | 0.00 | 0.00 | 92 | 1021.3 |
| 20260830112017 | 23 | 0 | 0.0 | 0.0 | 0.00 | 0.00 | 0.00 | 92 | 1021.3 |
| 20260830111517 | 23 | 0 | 0.0 | 0.0 | 0.00 | 0.00 | 0.00 | 92 | 1021.2 |
| 20260830111017 | 23 | 0 | 0.0 | 0.0 | 0.00 | 0.00 | 0.00 | 92 | 1021.1 |
| 20260830110517 | 23 | 0 | 0.0 | 0.0 | 0.00 | 0.00 | 0.00 | 92 | 1021.1 |
| 20260830110017 | 23 | 0 | 0.0 | 0.0 | 0.00 | 0.00 | 0.00 | 92 | 1021.0 |
| 20260830105518 | 23 | 0 | 0.0 | 0.0 | 0.00 | 0.00 | 0.00 | 92 | 1021.0 |
| 20260830105017 | 23 | 0 | 0.0 | 0.0 | 0.00 | 0.00 | 0.00 | 92 | 1020.9 |
| 20260830104518 | 23 | 0 | 0.0 | 0.0 | 0.00 | 0.00 | 0.00 | 92 | 1020.8 |
| 20260830104017 | 23 | 0 | 0.0 | 0.0 | 0.00 | 0.00 | 0.00 | 91 | 1020.8 |
| 20260830103518 | 23 | 0 | 0.0 | 0.0 | 0.00 | 0.00 | 0.00 | 91 | 1020.8 |
| 20260830103017 | 23 | 0 | 0.0 | 0.0 | 0.00 | 0.00 | 0.00 | 91 | 1020.7 |
| 20260830102517 | 23 | 0 | 0.0 | 0.0 | 0.00 | 0.00 | 0.00 | 91 | 1020.7 |
| 20260830102017 | 23 | 0 | 0.0 | 0.0 | 0.00 | 0.00 | 0.00 | 92 | 1020.7 |
| 20260830101517 | 23 | 0 | 0.0 | 0.0 | 0.00 | 0.00 | 0.00 | 92 | 1020.5 |
| 20260830101018 | 23 | 0 | 0.0 | 0.0 | 0.00 | 0.00 | 0.00 | 92 | 1020.4 |
| 20260830100517 | 23 | 0 | 0.0 | 0.0 | 0.00 | 0.00 | 0.00 | 92 | 1020.4 |
| 20260830100017 | 23 | 0 | 0.0 | 0.0 | 0.00 | 0.00 | 0.00 | 92 | 1020.4 |
| 20260830095517 | 23 | 0 | 0.0 | 0.0 | 0.00 | 0.00 | 0.00 | 92 | 1020.4 |
| 20260830095017 | 23 | 0 | 0.0 | 0.0 | 0.00 | 0.00 | 0.00 | 92 | 1020.4 |
| 20260830094518 | 23 | 0 | 0.0 | 0.0 | 0.00 | 0.00 | 0.00 | 92 | 1020.3 |
| 20260830094017 | 23 | 0 | 0.0 | 0.0 | 0.00 | 0.00 | 0.00 | 91 | 1020.3 |
| 20260830093517 | 23 | 0 | 0.0 | 0.0 | 0.00 | 0.00 | 0.00 | 91 | 1020.3 |
| 20260830093019 | 23 | 0 | 0.0 | 0.0 | 0.00 | 0.00 | 0.00 | 91 | 1020.3 |
| 20260830092517 | 23 | 0 | 0.0 | 0.0 | 0.00 | 0.00 | 0.00 | 91 | 1020.3 |
| 20260830092017 | 23 | 0 | 0.0 | 0.0 | 0.00 | 0.00 | 0.00 | 91 | 1020.2 |
| 20260830091517 | 23 | 0 | 0.0 | 0.0 | 0.00 | 0.00 | 0.00 | 91 | 1020.3 |
| 20260830091017 | 23 | 0 | 0.0 | 0.0 | 0.00 | 0.00 | 0.00 | 91 | 1020.3 |
| 20260830090517 | 23 | 0 | 0.0 | 0.0 | 0.00 | 0.00 | 0.00 | 91 | 1020.3 |
| 20260830090017 | 23 | 0 | 0.0 | 0.0 | 0.00 | 0.00 | 0.00 | 91 | 1020.3 |
| 20260830085517 | 23 | 0 | 0.0 | 0.0 | 0.00 | 0.00 | 0.00 | 91 | 1020.2 |
| 20260830085017 | 23 | 0 | 0.0 | 0.0 | 0.00 | 0.00 | 0.00 | 91 | 1020.2 |
| 20260830084517 | 23 | 0 | 0.0 | 0.0 | 0.00 | 0.00 | 0.00 | 91 | 1020.0 |
| 20260830084017 | 23 | 0 | 0.0 | 0.0 | 0.00 | 0.00 | 0.00 | 90 | 1020.0 |
| 20260830083518 | 23 | 0 | 0.0 | 0.0 | 0.00 | 0.00 | 0.00 | 90 | 1020.0 |
| 20260830083017 | 23 | 0 | 0.0 | 0.0 | 0.00 | 0.00 | 0.00 | 90 | 1020.1 |
| 20260830082517 | 23 | 0 | 0.0 | 0.0 | 0.00 | 0.00 | 0.00 | 90 | 1020.0 |
| 20260830082017 | 23 | 0 | 0.0 | 0.0 | 0.00 | 0.00 | 0.00 | 90 | 1020.0 |
| 20260830081517 | 23 | 0 | 0.0 | 0.0 | 0.00 | 0.00 | 0.00 | 90 | 1020.0 |
| 20260830081018 | 24 | 0 | 0.0 | 0.0 | 0.00 | 0.00 | 0.00 | 90 | 1020.0 |
| 20260830080517 | 23 | 0 | 0.0 | 0.0 | 0.00 | 0.00 | 0.00 | 90 | 1020.1 |
| 20260830080017 | 24 | 0 | 0.0 | 0.0 | 0.00 | 0.00 | 0.00 | 90 | 1020.1 |
| 20260830075517 | 24 | 0 | 0.0 | 0.0 | 0.00 | 0.00 | 0.00 | 90 | 1020.1 |
| 20260830075017 | 24 | 0 | 0.0 | 0.0 | 0.00 | 0.00 | 0.00 | 90 | 1020.1 |
| 20260830074517 | 24 | 0 | 0.0 | 0.0 | 0.00 | 0.00 | 0.00 | 90 | 1020.0 |
| 20260830074017 | 24 | 0 | 0.0 | 0.0 | 0.00 | 0.00 | 0.00 | 90 | 1020.0 |
| 20260830073517 | 24 | 0 | 0.0 | 0.0 | 0.00 | 0.00 | 0.00 | 89 | 1020.0 |
| 20260830073017 | 24 | 0 | 0.0 | 0.0 | 0.00 | 0.00 | 0.00 | 89 | 1020.0 |
| 20260830072517 | 24 | 0 | 0.0 | 0.0 | 0.00 | 0.00 | 0.00 | 89 | 1020.0 |
| 20260830072017 | 24 | 0 | 0.0 | 0.0 | 0.00 | 0.00 | 0.00 | 89 | 1020.1 |
| 20260830071517 | 24 | 0 | 0.0 | 0.0 | 0.00 | 0.00 | 0.00 | 89 | 1020.1 |
| 20260830071023 | 24 | 0 | 0.0 | 0.0 | 0.00 | 0.00 | 0.00 | 89 | 1020.1 |
| 20260830070518 | 24 | 0 | 0.0 | 0.0 | 0.00 | 0.00 | 0.00 | 89 | 1020.1 |
| 20260830070018 | 24 | 0 | 0.0 | 0.0 | 0.00 | 0.00 | 0.00 | 89 | 1020.1 |
| 20260830065518 | 24 | 0 | 0.0 | 0.0 | 0.00 | 0.00 | 0.00 | 89 | 1020.2 |
| 20260830065018 | 24 | 0 | 0.0 | 0.0 | 0.00 | 0.00 | 0.00 | 89 | 1020.2 |
| 20260830064518 | 24 | 0 | 0.0 | 0.0 | 0.00 | 0.00 | 0.00 | 89 | 1020.2 |
| 20260830064018 | 24 | 0 | 0.0 | 0.0 | 0.00 | 0.00 | 0.00 | 89 | 1020.2 |
| 20260830063518 | 24 | 0 | 0.0 | 0.0 | 0.00 | 0.00 | 0.00 | 88 | 1020.2 |
| 20260830063018 | 24 | 0 | 0.0 | 0.0 | 0.00 | 0.00 | 0.00 | 88 | 1020.4 |
| 20260830062517 | 24 | 0 | 0.0 | 0.0 | 0.00 | 0.00 | 0.00 | 88 | 1020.4 |
| 20260830062023 | 25 | 0 | 0.0 | 0.0 | 0.00 | 0.00 | 0.00 | 88 | 1020.4 |
| 20260830061518 | 25 | 0 | 0.0 | 0.0 | 0.00 | 0.00 | 0.00 | 88 | 1020.5 |
| 20260830061017 | 24 | 0 | 0.0 | 0.0 | 0.00 | 0.00 | 0.00 | 88 | 1020.5 |
| 20260830060522 | 25 | 0 | 0.0 | 0.0 | 0.00 | 0.00 | 0.00 | 88 | 1020.5 |
| 20260830060018 | 25 | 0 | 0.0 | 0.0 | 0.00 | 0.00 | 0.00 | 88 | 1020.7 |
| 20260830055517 | 25 | 0 | 0.0 | 0.0 | 0.00 | 0.00 | 0.00 | 88 | 1020.7 |
| 20260830055017 | 25 | 0 | 0.0 | 0.0 | 0.00 | 0.00 | 0.00 | 87 | 1020.8 |
| 20260830054518 | 25 | 0 | 0.0 | 0.0 | 0.00 | 0.00 | 0.00 | 87 | 1020.8 |
| 20260830054017 | 25 | 0 | 0.0 | 0.0 | 0.00 | 0.00 | 0.00 | 87 | 1020.7 |
| 20260830053518 | 25 | 0 | 0.0 | 0.0 | 0.00 | 0.00 | 0.00 | 87 | 1020.7 |
| 20260830053017 | 25 | 0 | 0.0 | 0.0 | 0.00 | 0.00 | 0.00 | 87 | 1020.7 |
| 20260830052517 | 25 | 0 | 0.0 | 0.0 | 0.00 | 0.00 | 0.00 | 87 | 1020.8 |
| 20260830052018 | 25 | 0 | 0.0 | 0.0 | 0.00 | 0.00 | 0.00 | 87 | 1020.8 |
| 20260830051517 | 25 | 0 | 0.0 | 0.0 | 0.00 | 0.00 | 0.00 | 87 | 1020.8 |
| 20260830051017 | 25 | 0 | 0.0 | 0.0 | 0.00 | 0.00 | 0.00 | 86 | 1020.9 |
| 20260830050517 | 25 | 0 | 0.0 | 0.0 | 0.00 | 0.00 | 0.00 | 86 | 1020.9 |
| 20260830050017 | 25 | 0 | 0.0 | 0.0 | 0.00 | 0.00 | 0.00 | 86 | 1020.9 |
| 20260830045517 | 25 | 0 | 0.0 | 0.0 | 0.00 | 0.00 | 0.00 | 86 | 1020.8 |
| 20260830045017 | 25 | 0 | 0.0 | 0.0 | 0.00 | 0.00 | 0.00 | 86 | 1020.9 |
| 20260830044517 | 25 | 0 | 0.0 | 0.0 | 0.00 | 0.00 | 0.00 | 86 | 1020.8 |
| 20260830044017 | 25 | 0 | 0.0 | 0.0 | 0.00 | 0.00 | 0.00 | 86 | 1020.9 |
| 20260830043517 | 25 | 0 | 0.0 | 0.0 | 0.00 | 0.00 | 0.00 | 86 | 1021.0 |
| 20260830043017 | 25 | 0 | 0.0 | 0.0 | 0.00 | 0.00 | 0.00 | 85 | 1020.9 |
| 20260830042518 | 25 | 0 | 0.0 | 0.0 | 0.00 | 0.00 | 0.00 | 85 | 1021.0 |
| 20260830042017 | 25 | 0 | 0.0 | 0.0 | 0.00 | 0.00 | 0.00 | 85 | 1021.0 |
| 20260830041517 | 25 | 0 | 0.0 | 0.0 | 0.00 | 0.00 | 0.00 | 85 | 1021.0 |
| 20260830041017 | 25 | 0 | 0.0 | 0.0 | 0.00 | 0.00 | 0.00 | 85 | 1021.0 |
| 20260830040518 | 25 | 0 | 0.0 | 0.0 | 0.00 | 0.00 | 0.00 | 85 | 1020.9 |
| 20260830040017 | 25 | 0 | 0.0 | 0.0 | 0.00 | 0.00 | 0.00 | 84 | 1020.9 |
| 20260830035517 | 25 | 0 | 0.0 | 0.0 | 0.00 | 0.00 | 0.00 | 85 | 1021.0 |
| 20260830035017 | 25 | 0 | 0.0 | 0.0 | 0.00 | 0.00 | 0.00 | 85 | 1020.8 |
| 20260830034517 | 26 | 0 | 0.0 | 0.0 | 0.00 | 0.00 | 0.00 | 85 | 1020.9 |
| 20260830034017 | 26 | 0 | 0.0 | 0.0 | 0.00 | 0.00 | 0.00 | 85 | 1020.9 |
| 20260830033517 | 26 | 0 | 0.0 | 0.0 | 0.00 | 0.00 | 0.00 | 85 | 1020.8 |
| 20260830033018 | 26 | 0 | 0.0 | 0.0 | 0.00 | 0.00 | 0.00 | 84 | 1020.9 |
| 20260830032517 | 26 | 0 | 0.0 | 0.0 | 0.00 | 0.00 | 0.00 | 84 | 1020.8 |
| 20260830032017 | 26 | 0 | 0.0 | 0.0 | 0.00 | 0.00 | 0.00 | 84 | 1020.8 |
| 20260830031518 | 26 | 0 | 0.0 | 0.0 | 0.00 | 0.00 | 0.00 | 84 | 1020.8 |
| 20260830031017 | 26 | 0 | 0.0 | 0.0 | 0.00 | 0.00 | 0.00 | 84 | 1020.7 |
| 20260830030517 | 26 | 0 | 0.0 | 0.0 | 0.00 | 0.00 | 0.00 | 84 | 1020.5 |